Other Public Products
Issued by NWS Grand Forks, ND

Home | Current Version | Previous Version | Graphics & Text | Print | Product List | Glossary On
Versions: 1 2 3 4 5 6 7 8 9 10 11 12 13 14 15 16 17 18 19 20 21 22 23 24 25 26 27 28 29 30 31 32 33 34 35 36 37 38 39 40 41 42 43 44 45 46 47 48 49 50
000
FPUS83 KFGF 210631
OPUFGF
PRAIRIE TO PINES WEATHER ROUNDUP
NATIONAL WEATHER SERVICE EASTERN NORTH DAKOTA/GRAND FORKS ND
1200 AM CST TUE NOV 21 2017

 **SATELLITE DATA USED TO AUGMENT SKY COVER AT AUTOMATED STATIONS**
 *****  WEATHER ACROSS EASTERN NORTH DAKOTA  *****

CITY           SKY/WX    TMP DP  RH WIND       PRES   REMARKS
GRAND FORKS    FAIR      22  13  68 NW23G35   29.66R WCI   6
6HR MIN TEMP:  22; 6HR MAX TEMP:  38;

GRND FORKS AFB PTCLDY    22  12  66 NW22G32   29.67R WCI   6
GRND FORKS NWS NOT AVBL
BUXTON           N/A     24  16  70 NW32        N/A  WCI   7
DEVILS LAKE    FLURRIES  18  10  73 NW28G36   29.77R WCI  -1
6HR MIN TEMP:  19; 6HR MAX TEMP:  31; 6HR PCP: TRACE;

FARGO          CLOUDY    27  16  63 NW20G28   29.67R WCI  13
6HR MIN TEMP:  27; 6HR MAX TEMP:  45;

WAHPETON ARPT  NOT AVBL
$$

 *****  WEATHER ACROSS CENTRAL AND WESTERN NORTH DAKOTA  *****

CITY           SKY/WX    TMP DP  RH WIND       PRES   REMARKS
JAMESTOWN      CLOUDY    19  10  68 NW28G41   29.76R WCI   1
6HR MIN TEMP:  19; 6HR MAX TEMP:  37; 6HR PCP: TRACE;

BISMARCK       FAIR      22   5  48 NW28G39   29.91R WCI   4
6HR MIN TEMP:  22; 6HR MAX TEMP:  42;

MINOT          FAIR      12   3  67 W26G38    29.88R WCI  -8
6HR MIN TEMP:  12; 6HR MAX TEMP:  28; 6HR PCP: TRACE;

MINOT AFB      FAIR      10   3  71 NW28G38   29.87R WCI -11
6HR MIN TEMP:  10; 6HR MAX TEMP:  25; 6HR PCP: TRACE;

GARRISON         N/A     11   4  73 NW31G40   29.90R WCI -11
6HR MIN TEMP:  11; 6HR MAX TEMP:  31;

WILLISTON      MOCLDY     7  -1  70 NW20      30.07R WCI -13
6HR MIN TEMP:   7; 6HR MAX TEMP:  30;

DICKINSON      FAIR      19   9  65 N16G29    29.91R WCI   4
6HR MIN TEMP:  19; 6HR MAX TEMP:  34;

HETTINGER      CLOUDY    30  10  43 NW23G35   29.89R WCI  17
6HR MIN TEMP:  30; 6HR MAX TEMP:  41; 6HR PCP: TRACE;

$$

 *****  OTHER OBSERVATIONS NORTHEAST NORTH DAKOTA  *****

CITY           SKY/WX    TMP DP  RH WIND       PRES   REMARKS
WALHALLA       FLURRIES  18  12  79 NW32G40   29.71R WCI  -3
LANGDON        FLURRIES  14   9  79 NW28G37   29.70R WCI  -6
CAVALIER       FLURRIES  18   9  68 NW26G39   29.69R WCI  -1
GRAFTON        MOCLDY    19  16  86 NW28G38   29.71R FOG     WCI   1
CANDO          CLOUDY    16   7  67 NW25G36   29.80R WCI  -3
FORT TOTTEN      N/A     19  11  71 NW14      29.95S WCI   6
ROLLA          CLOUDY    12   5  73 NW31G40   29.76R WCI -10
RUGBY          FLURRIES  14   7  73 NW33G39   29.81R WCI  -8
 ***** THE ABOVE OBSERVATIONS ARE NON NWS ARE NOT QUALITY
        CONTROLLED AND MAY MIS-REPORT RAIN FOR SNOW...
$$

 *****  OTHER OBSERVATIONS SOUTHEAST NORTH DAKOTA *****

CITY           SKY/WX    TMP DP  RH WIND       PRES   REMARKS
COOPERSTOWN    LGT SNOW  19  16  86 NW26G35   29.73R WCI   1
VALLEY CITY    FLURRIES  19   9  63 NW32G45   29.75R WCI   0
OAKES            N/A     27  16  63 NW25G32   29.75R WCI  11
GWINNER          N/A     25  10  54 NW22G33   29.74R WCI  10
SHEYENNE NWR     N/A     26  15  64 NW14      29.95S WCI  14
BUFFALO          N/A     23  11  62 W30G45      N/A  WCI   5
WYNDMERE       NOT AVBL
 ***** THE ABOVE OBSERVATIONS ARE NON NWS ARE NOT QUALITY
       CONTROLLED AND MAY MIS-REPORT RAIN FOR SNOW...
$$

  *****  WEATHER ACROSS NORTHERN MINNESOTA  *****

CITY           SKY/WX    TMP DP  RH WIND       PRES   REMARKS
FLAG ISLAND    LGT SNOW  19  16  86 NW26G32   29.42R WCI   1
WARROAD        FLURRIES  19  12  73 W21G30    29.49R WCI   3
ROSEAU         FLURRIES  19  12  73 NW17G26   29.51R WCI   4
HALLOCK        LGT SNOW  18  14  86 NW28G37   29.63R WCI  -1
THF RVR FALLS  LGT SNOW  18  14  86 NW28G38   29.62R FOG     WCI  -1
6HR MIN TEMP:  21; 6HR MAX TEMP:  38; 6HR PCP: TRACE;

HALSTAD          N/A     25  14  64 NW22        N/A  WCI  10
FOSSTON        LGT SNOW  19  14  79 W20G28    29.60R WCI   4
BAUDETTE       FLURRIES  20  12  71 NW25G37   29.44R WCI   2
6HR MIN TEMP:  22; 6HR MAX TEMP:  39; 6HR PCP: TRACE;

WASKISH        CLOUDY    21  12  68 W28G41    29.48R WCI   3
CROOKSTON      MOCLDY    21  12  68 NW25G32   29.66R WCI   4
$$
  *****  WEATHER ACROSS CENTRAL AND WEST MINNESOTA  *****

CITY           SKY/WX    TMP DP  RH WIND       PRES   REMARKS
BEMIDJI        LGT SNOW  23  19  84 NW14G21   29.51R WCI  10
6HR MIN TEMP:  23; 6HR MAX TEMP:  41;

PARK RAPIDS    CLOUDY    25  16  68 NW31G44   29.53R WCI   8
6HR MIN TEMP:  25; 6HR MAX TEMP:  44;

WADENA         FAIR      25  16  68 NW25G31   29.58R WCI   9
DETROIT LAKES  CLOUDY    25  14  63 NW28G43   29.64R WCI   8
MOORHEAD       CLOUDY    25  16  68 NW18      29.69R WCI  11
FERGUS FALLS   CLOUDY    27  18  69 NW28      29.69R WCI  11
ELBOW LAKE     FAIR      26  17  69 NW31G43   29.66R WCI   9
MORRIS MN      FAIR      30  16  55 NW21G29   29.65R WCI  17
STAPLES        FAIR      27  18  69 NW28G33   29.55R WCI  11
WHEATON        FAIR      28  16  59 NW16G23   29.73R WCI  17
$$
  *****  WEATHER ELSEWHERE ACROSS MINNESOTA  *****

CITY           SKY/WX    TMP DP  RH WIND       PRES   REMARKS
DULUTH         FAIR      35  24  64 W24G40    29.33R WCI  23
6HR MIN TEMP:  33; 6HR MAX TEMP:  38;

INTRNTL FALLS  LGT SNOW  23  15  71 W20G29    29.37R WCI   8
6HR MIN TEMP:  24; 6HR MAX TEMP:  40; 6HR PCP: TRACE;

ELY            FLURRIES  28  21  74 W28G38    29.28R WCI  13
CLOQUET        MOCLDY    36  23  60 W21G28    29.38R
BRAINERD       MOCLDY    34  21  59 W17G25    29.50R WCI  23
6HR MIN TEMP:  34; 6HR MAX TEMP:  44;

HIBBING        CLOUDY    30  22  72 NW25G38   29.36R WCI  16
6HR MIN TEMP:  30; 6HR MAX TEMP:  38; 6HR PCP: TRACE;

ALEXANDRIA     FAIR      29  20  69 NW23G30   29.59R WCI  15
6HR MIN TEMP:  29; 6HR MAX TEMP:  45;

SAINT CLOUD    FAIR      36  27  69 W18G25    29.54R
6HR MIN TEMP:  33; 6HR MAX TEMP:  45;

MINNEAPOLIS    FAIR      42  27  55 NW16      29.54R
6HR MIN TEMP:  42; 6HR MAX TEMP:  47;

$$

  *****  WEATHER ACROSS SOUTH DAKOTA  *****

CITY           SKY/WX    TMP DP  RH WIND       PRES   REMARKS
SIOUX FALLS    CLOUDY    40  24  53 N17G24    29.73R
6HR MIN TEMP:  37; 6HR MAX TEMP:  46;

BROOKINGS      CLOUDY    35  20  54 MISG        N/A
WATERTOWN      MOCLDY    32  18  56 NW16G24   29.71R WCI  21
6HR MIN TEMP:  31; 6HR MAX TEMP:  47;

HURON          CLOUDY    38  23  55 N13       29.77R
6HR MIN TEMP:  34; 6HR MAX TEMP:  44;

SISSETON         N/A     31  17  56 NW28G38   29.68R WCI  17
ABERDEEN       MOCLDY    34  17  50 NW15      29.77R WCI  24
6HR MIN TEMP:  33; 6HR MAX TEMP:  51;

MITCHELL       CLOUDY    41  24  51 N15       29.80R
PIERRE         CLOUDY    40  23  50 N17       29.81R
6HR MIN TEMP:  40; 6HR MAX TEMP:  50;

MOBRIDGE       CLOUDY    37  14  38 N24G38    29.79R
RAPID CITY     CLOUDY    37  26  64 N15       29.86R
6HR MIN TEMP:  36; 6HR MAX TEMP:  50;

$$

  *****  SOME WEATHER IN NEARBY STATES *****

CITY           SKY/WX    TMP DP  RH WIND       PRES   REMARKS
GLASGOW MT     CLOUDY    10  -1  61 NW22G31   30.11R WCI -10
6HR MIN TEMP:  10; 6HR MAX TEMP:  31;

GREAT FALLS MT LGT SNOW  23  19  85 NE16      30.12R FOG     WCI  10
6HR MIN TEMP:  24; 6HR MAX TEMP:  30; 6HR PCP:  0.04;

CHEYENNE WY    FAIR      48  14  25 W33G45    29.87F
6HR MIN TEMP:  46; 6HR MAX TEMP:  52;

SCOTTSBLUFF NE FAIR      53  21  28 W15       29.80R
6HR MIN TEMP:  42; 6HR MAX TEMP:  57;

OMAHA NE       MOCLDY    39  28  64 CALM      29.70R
6HR MIN TEMP:  39; 6HR MAX TEMP:  51;

DES MOINES IA  FAIR      45  29  53 SW6       29.67S
6HR MIN TEMP:  45; 6HR MAX TEMP:  55;

DAVENPORT IA   FAIR      48  30  49 SW13G21   29.68S
6HR MIN TEMP:  48; 6HR MAX TEMP:  53;

CHICAGO IL     MOCLDY    44  30  57 SW20G33   29.67F
6HR MIN TEMP:  44; 6HR MAX TEMP:  50;

EAU CLAIRE WI  FAIR      39  27  62 W9        29.47R
6HR MIN TEMP:  38; 6HR MAX TEMP:  47;

LA CROSSE WI   FAIR      46  29  51 SW6       29.54R
6HR MIN TEMP:  44; 6HR MAX TEMP:  54;

$$

  *****  SOME NATIONAL WEATHER *****

CITY           SKY/WX    TMP DP  RH WIND       PRES   REMARKS
LA GUARDIA NY  FAIR      43  25  49 SW10      30.12F



USA.gov is the U.S. government's official web portal to all federal, state and local government web resources and services.